Terminal Aerodrome Forecast
Issued by NWS

Home | Current Version | Previous Version | Text Only | Print | Product List | Glossary On
Versions: 1 2 3 4 5 6 7 8 9 10 11 12 13 14 15
000
FTUS45 KRIW 201139
TAFBPI
TAF
KBPI 201139Z 2012/2112 VRB04KT 2SM BR SCT002 SCT035
      TEMPO 2012/2015 1/2SM FZFG BKN002
     FM201700 VRB05KT P6SM SCT040
     FM202200 VRB04KT P6SM SCT025 BKN040
     FM210900 VRB04KT P6SM VCSH SCT018 OVC030=

USA.gov is the U.S. government's official web portal to all federal, state and local government web resources and services.